STARLINK-33784, 63453

Orbit data source: Space-Track

STARLINK-33784, 63453 is a payload satellite owned by SpaceX/Seattle (US) in LEO that was launched on Fri, 04 Apr 2025 UTC via an FALCON 9 launch vehicle from the Air Force Western Test Range (AFWTR). Payload-class satellites include a variety of spacecraft equipped with specific instruments for various scientific and technological missions. These include communications satellites like Starlink; space stations such as the ISS; scientific satellites like the Hubble; Earth observation satellites from companies like Planet Labs, Umbra, and HawkEye 360; GPS; miniature CubeSats for education and research; and military/defense satellites.

Loading next visibility...
Identifier
63453, 2025-069W
Orbit
LEO
Country
Flag of USUS
Related business
Manufacturer
SpaceX/Seattle
Mission
Operational Commercial Communications
Bus & Motor
STARLINK V2MO, Unknown motor
Mass
575 kg wet, ~530 kg dry
Launch date (UTC)
2025-04-04 (8 months ago)
Launch vehicle
FALCON 9
Launch site
Air Force Western Test Range (AFWTR)
Object type
Payload
Rocket body
Debris
Shape & HBR
Box + 2 Pan, 17.7 m
Radar Cross Section
36.964 m², Large (>1 m²)

Expand to show TLE details & history
Last TLE update: 16 hours ago

TLE from 16 hours ago
0 STARLINK-33784
1 63453U 25069W   25348.92824033  .00016819  00000-0  57862-3 0  9992
2 63453  53.1592 176.4475 0001325  78.2689 281.8460 15.30204925 40423
Epoch: 2025-12-14T22:16Z
TLE epoch observation values (Epoch: 2025-12-14T22:16:39.964Z)
Latitude
-0.00005°
Longitude
118.44682°
Altitude
475.914 km
Speed
7.629 km/s
True Right ascension
11h 45m 47s
True Declination
0° 00' 00"
Sunlit
Object was in daylight at epoch
Visualization orbit readout
Latitude
Unknown
Longitude
Unknown
Altitude
Unknown
Speed
Unknown
Apparent Right ascension
Unknown
Apparent Declination
Unknown
Sunlit
N/A
Visualization observer readout
Local Sidereal Time
13:19:51
Azimuth
Unknown
Elevation
Unknown
Doppler factor
Unknown
Orbital elements
Apogee altitude
476.365 km
Perigee altitude
474.549 km
Semi-major axis
6,853.594 km
Eccentricity
0.00013
Inclination
53.1592°
RAAN
176.4475°
Arg. of periapsis
78.2689°
True anomaly
281.83114°
Mean anomaly
281.846°
Eccentric anomaly
281.83857°
Mean motion
3.8253 °/min
Orbital period
94.11 mins
BSTAR
0.00057862
Loading maneuver chart data...
Computing Atmospheric mass density...
Loading historical data...
Loading historical data...
Loading historical data...
Loading historical data...
Loading historical data...
Loading historical data...
Loading historical data...

Documentation

Showing up to 5 results
|